Year,Month,Day,Hour,Minute,Value (Times are PST for temperature in C)
2007,07,15,00,00,19.40
2007,07,15,00,01,19.40
2007,07,15,00,02,19.30
2007,07,15,00,03,19.30
2007,07,15,00,04,19.30
2007,07,15,00,05,19.30
2007,07,15,00,06,19.20
2007,07,15,00,07,19.20
2007,07,15,00,08,19.20
2007,07,15,00,09,19.10
2007,07,15,00,10,19.10
2007,07,15,00,11,19.10
2007,07,15,00,12,19.10
2007,07,15,00,13,19.10
2007,07,15,00,14,19.00
2007,07,15,00,15,18.90
2007,07,15,00,16,18.90
2007,07,15,00,17,18.90
2007,07,15,00,18,18.90
2007,07,15,00,19,18.90
2007,07,15,00,20,18.90
2007,07,15,00,21,18.90
2007,07,15,00,22,18.90
2007,07,15,00,23,18.90
2007,07,15,00,24,18.80
2007,07,15,00,25,18.80
2007,07,15,00,26,18.80
2007,07,15,00,27,18.80
2007,07,15,00,28,18.80
2007,07,15,00,29,18.70
2007,07,15,00,30,18.70
2007,07,15,00,31,18.70
2007,07,15,00,32,18.70
2007,07,15,00,33,18.70
2007,07,15,00,34,18.60
2007,07,15,00,35,18.60
2007,07,15,00,36,18.60
2007,07,15,00,37,18.60
2007,07,15,00,38,18.60
2007,07,15,00,39,18.60
2007,07,15,00,40,18.60
2007,07,15,00,41,18.60
2007,07,15,00,42,18.50
2007,07,15,00,43,18.50
2007,07,15,00,44,18.50
2007,07,15,00,45,18.50
2007,07,15,00,46,18.40
2007,07,15,00,47,18.40
2007,07,15,00,48,18.40
2007,07,15,00,49,18.40
2007,07,15,00,50,18.30
2007,07,15,00,51,18.30
2007,07,15,00,52,18.30
2007,07,15,00,53,18.30
2007,07,15,00,54,18.30
2007,07,15,00,55,18.20
2007,07,15,00,56,18.20
2007,07,15,00,57,18.20
2007,07,15,00,58,18.20
2007,07,15,00,59,18.20
2007,07,15,01,00,18.20
2007,07,15,01,01,18.20
2007,07,15,01,02,18.20
2007,07,15,01,03,18.20
2007,07,15,01,04,18.20
2007,07,15,01,05,18.20
2007,07,15,01,06,18.20
2007,07,15,01,07,18.10
2007,07,15,01,08,18.10
2007,07,15,01,09,18.10
2007,07,15,01,10,18.10
2007,07,15,01,11,18.10
2007,07,15,01,12,18.10
2007,07,15,01,13,18.00
2007,07,15,01,14,17.90
2007,07,15,01,15,17.90
2007,07,15,01,16,17.90
2007,07,15,01,17,17.90
2007,07,15,01,18,17.90
2007,07,15,01,19,17.90
2007,07,15,01,20,17.90
2007,07,15,01,21,17.90
2007,07,15,01,22,17.90
2007,07,15,01,23,17.90
2007,07,15,01,24,17.90
2007,07,15,01,25,17.90
2007,07,15,01,26,17.90
2007,07,15,01,27,17.90
2007,07,15,01,28,17.90
2007,07,15,01,29,17.90
2007,07,15,01,30,17.90
2007,07,15,01,31,17.90
2007,07,15,01,32,17.90
2007,07,15,01,33,17.80
2007,07,15,01,34,17.80
2007,07,15,01,35,17.80
2007,07,15,01,36,17.80
2007,07,15,01,37,17.80
2007,07,15,01,38,17.80
2007,07,15,01,39,17.70
2007,07,15,01,40,17.70
2007,07,15,01,41,17.70
2007,07,15,01,42,17.70
2007,07,15,01,43,17.70
2007,07,15,01,44,17.70
2007,07,15,01,45,17.80
2007,07,15,01,46,17.80
2007,07,15,01,47,17.80
2007,07,15,01,48,17.80
2007,07,15,01,49,17.80
2007,07,15,01,50,17.80
2007,07,15,01,51,17.90
2007,07,15,01,52,17.90
2007,07,15,01,53,17.90
2007,07,15,01,54,17.90
2007,07,15,01,55,17.90
2007,07,15,01,56,17.90
2007,07,15,01,57,17.90
2007,07,15,01,58,17.90
2007,07,15,01,59,17.90
2007,07,15,02,00,17.90
2007,07,15,02,01,17.90
2007,07,15,02,02,17.90
2007,07,15,02,03,17.90
2007,07,15,02,04,17.90
2007,07,15,02,05,17.90
2007,07,15,02,06,17.90
2007,07,15,02,07,17.90
2007,07,15,02,08,17.90
2007,07,15,02,09,17.90
2007,07,15,02,10,17.90
2007,07,15,02,11,17.90
2007,07,15,02,12,17.90
2007,07,15,02,13,17.90
2007,07,15,02,14,17.90
2007,07,15,02,15,17.90
2007,07,15,02,16,17.90
2007,07,15,02,17,17.90
2007,07,15,02,18,17.90
2007,07,15,02,19,17.90
2007,07,15,02,20,17.90
2007,07,15,02,21,17.90
2007,07,15,02,22,17.90
2007,07,15,02,23,17.90
2007,07,15,02,24,17.90
2007,07,15,02,25,17.90
2007,07,15,02,26,17.90
2007,07,15,02,27,17.90
2007,07,15,02,28,17.90
2007,07,15,02,29,17.90
2007,07,15,02,30,17.90
2007,07,15,02,31,17.90
2007,07,15,02,32,18.00
2007,07,15,02,33,18.10
2007,07,15,02,34,18.10
2007,07,15,02,35,18.10
2007,07,15,02,36,18.10
2007,07,15,02,37,18.10
2007,07,15,02,38,18.10
2007,07,15,02,39,18.10
2007,07,15,02,40,18.10
2007,07,15,02,41,18.10
2007,07,15,02,42,18.10
2007,07,15,02,43,18.10
2007,07,15,02,44,18.10
2007,07,15,02,45,18.00
2007,07,15,02,46,17.90
2007,07,15,02,47,17.90
2007,07,15,02,48,17.90
2007,07,15,02,49,17.90
2007,07,15,02,50,17.90
2007,07,15,02,51,17.90
2007,07,15,02,52,17.90
2007,07,15,02,53,17.90
2007,07,15,02,54,17.90
2007,07,15,02,55,17.90
2007,07,15,02,56,17.90
2007,07,15,02,57,17.90
2007,07,15,02,58,17.80
2007,07,15,02,59,17.80
2007,07,15,03,00,17.80
2007,07,15,03,01,17.70
2007,07,15,03,02,17.70
2007,07,15,03,03,17.70
2007,07,15,03,04,17.70
2007,07,15,03,05,17.70
2007,07,15,03,06,17.70
2007,07,15,03,07,17.70
2007,07,15,03,08,17.70
2007,07,15,03,09,17.70
2007,07,15,03,10,17.70
2007,07,15,03,11,17.70
2007,07,15,03,12,17.70
2007,07,15,03,13,17.70
2007,07,15,03,14,17.70
2007,07,15,03,15,17.70
2007,07,15,03,16,17.70
2007,07,15,03,17,17.70
2007,07,15,03,18,17.70
2007,07,15,03,19,17.70
2007,07,15,03,20,17.70
2007,07,15,03,21,17.70
2007,07,15,03,22,17.70
2007,07,15,03,23,17.70
2007,07,15,03,24,17.70
2007,07,15,03,25,17.70
2007,07,15,03,26,17.80
2007,07,15,03,27,17.80
2007,07,15,03,28,17.80
2007,07,15,03,29,17.80
2007,07,15,03,30,17.80
2007,07,15,03,31,17.80
2007,07,15,03,32,17.80
2007,07,15,03,33,17.80
2007,07,15,03,34,17.80
2007,07,15,03,35,17.80
2007,07,15,03,36,17.90
2007,07,15,03,37,17.90
2007,07,15,03,38,17.90
2007,07,15,03,39,17.90
2007,07,15,03,40,17.90
2007,07,15,03,41,17.90
2007,07,15,03,42,17.90
2007,07,15,03,43,17.90
2007,07,15,03,44,17.90
2007,07,15,03,45,17.90
2007,07,15,03,46,17.80
2007,07,15,03,47,17.80
2007,07,15,03,48,17.80
2007,07,15,03,49,17.80
2007,07,15,03,50,17.80
2007,07,15,03,51,17.80
2007,07,15,03,52,17.80
2007,07,15,03,53,17.80
2007,07,15,03,54,17.70
2007,07,15,03,55,17.70
2007,07,15,03,56,17.70
2007,07,15,03,57,17.70
2007,07,15,03,58,17.70
2007,07,15,03,59,17.70
2007,07,15,04,00,17.70
2007,07,15,04,01,17.70
2007,07,15,04,02,17.70
2007,07,15,04,03,17.70
2007,07,15,04,04,17.70
2007,07,15,04,05,17.70
2007,07,15,04,06,17.60
2007,07,15,04,07,17.60
2007,07,15,04,08,17.60
2007,07,15,04,09,17.60
2007,07,15,04,10,17.60
2007,07,15,04,11,17.50
2007,07,15,04,12,17.50
2007,07,15,04,13,17.50
2007,07,15,04,14,17.50
2007,07,15,04,15,17.40
2007,07,15,04,16,17.40
2007,07,15,04,17,17.30
2007,07,15,04,18,17.30
2007,07,15,04,19,17.30
2007,07,15,04,20,17.30
2007,07,15,04,21,17.30
2007,07,15,04,22,17.30
2007,07,15,04,23,17.20
2007,07,15,04,24,17.20
2007,07,15,04,25,17.20
2007,07,15,04,26,17.20
2007,07,15,04,27,17.20
2007,07,15,04,28,17.10
2007,07,15,04,29,17.10
2007,07,15,04,30,17.10
2007,07,15,04,31,17.10
2007,07,15,04,32,17.00
2007,07,15,04,33,17.00
2007,07,15,04,34,17.00
2007,07,15,04,35,17.00
2007,07,15,04,36,17.00
2007,07,15,04,37,17.00
2007,07,15,04,38,17.00
2007,07,15,04,39,17.00
2007,07,15,04,40,17.00
2007,07,15,04,41,17.00
2007,07,15,04,42,17.00
2007,07,15,04,43,17.00
2007,07,15,04,44,17.00
2007,07,15,04,45,17.00
2007,07,15,04,46,17.00
2007,07,15,04,47,17.00
2007,07,15,04,48,17.10
2007,07,15,04,49,17.10
2007,07,15,04,50,17.10
2007,07,15,04,51,17.10
2007,07,15,04,52,17.10
2007,07,15,04,53,17.10
2007,07,15,04,54,17.10
2007,07,15,04,55,17.10
2007,07,15,04,56,17.10
2007,07,15,04,57,17.10
2007,07,15,04,58,17.10
2007,07,15,04,59,17.10
2007,07,15,05,00,17.10
2007,07,15,05,01,17.10
2007,07,15,05,02,17.10
2007,07,15,05,03,17.20
2007,07,15,05,04,17.20
2007,07,15,05,05,17.20
2007,07,15,05,06,17.20
2007,07,15,05,07,17.20
2007,07,15,05,08,17.20
2007,07,15,05,09,17.20
2007,07,15,05,10,17.20
2007,07,15,05,11,17.20
2007,07,15,05,12,17.20
2007,07,15,05,13,17.20
2007,07,15,05,14,17.20
2007,07,15,05,15,17.20
2007,07,15,05,16,17.20
2007,07,15,05,17,17.20
2007,07,15,05,18,17.20
2007,07,15,05,19,17.20
2007,07,15,05,20,17.20
2007,07,15,05,21,17.30
2007,07,15,05,22,17.30
2007,07,15,05,23,17.30
2007,07,15,05,24,17.20
2007,07,15,05,25,17.20
2007,07,15,05,26,17.20
2007,07,15,05,27,17.20
2007,07,15,05,28,17.20
2007,07,15,05,29,17.20
2007,07,15,05,30,17.20
2007,07,15,05,31,17.20
2007,07,15,05,32,17.20
2007,07,15,05,33,17.20
2007,07,15,05,34,17.20
2007,07,15,05,35,17.20
2007,07,15,05,36,17.20
2007,07,15,05,37,17.20
2007,07,15,05,38,17.20
2007,07,15,05,39,17.20
2007,07,15,05,40,17.20
2007,07,15,05,41,17.10
2007,07,15,05,42,17.10
2007,07,15,05,43,17.10
2007,07,15,05,44,17.10
2007,07,15,05,45,17.10
2007,07,15,05,46,17.10
2007,07,15,05,47,17.10
2007,07,15,05,48,17.10
2007,07,15,05,49,17.10
2007,07,15,05,50,17.10
2007,07,15,05,51,17.10
2007,07,15,05,52,17.20
2007,07,15,05,53,17.20
2007,07,15,05,54,17.20
2007,07,15,05,55,17.20
2007,07,15,05,56,17.20
2007,07,15,05,57,17.20
2007,07,15,05,58,17.20
2007,07,15,05,59,17.20
2007,07,15,06,00,17.20
2007,07,15,06,01,17.20
2007,07,15,06,02,17.20
2007,07,15,06,03,17.20
2007,07,15,06,04,17.20
2007,07,15,06,05,17.20
2007,07,15,06,06,17.30
2007,07,15,06,07,17.30
2007,07,15,06,08,17.30
2007,07,15,06,09,17.30
2007,07,15,06,10,17.30
2007,07,15,06,11,17.30
2007,07,15,06,12,17.30
2007,07,15,06,13,17.30
2007,07,15,06,14,17.30
2007,07,15,06,15,17.30
2007,07,15,06,16,17.30
2007,07,15,06,17,17.30
2007,07,15,06,18,17.30
2007,07,15,06,19,17.30
2007,07,15,06,20,17.30
2007,07,15,06,21,17.30
2007,07,15,06,22,17.30
2007,07,15,06,23,17.40
2007,07,15,06,24,17.40
2007,07,15,06,25,17.40
2007,07,15,06,26,17.40
2007,07,15,06,27,17.40
2007,07,15,06,28,17.50
2007,07,15,06,29,17.50
2007,07,15,06,30,17.50
2007,07,15,06,31,17.50
2007,07,15,06,32,17.60
2007,07,15,06,33,17.70
2007,07,15,06,34,17.70
2007,07,15,06,35,17.80
2007,07,15,06,36,17.90
2007,07,15,06,37,17.90
2007,07,15,06,38,17.90
2007,07,15,06,39,17.90
2007,07,15,06,40,18.00
2007,07,15,06,41,18.10
2007,07,15,06,42,18.10
2007,07,15,06,43,18.10
2007,07,15,06,44,18.10
2007,07,15,06,45,18.10
2007,07,15,06,46,18.20
2007,07,15,06,47,18.20
2007,07,15,06,48,18.20
2007,07,15,06,49,18.20
2007,07,15,06,50,18.20
2007,07,15,06,51,18.20
2007,07,15,06,52,18.20
2007,07,15,06,53,18.20
2007,07,15,06,54,18.20
2007,07,15,06,55,18.20
2007,07,15,06,56,18.20
2007,07,15,06,57,18.20
2007,07,15,06,58,18.20
2007,07,15,06,59,18.20
2007,07,15,07,00,18.20
2007,07,15,07,01,18.20
2007,07,15,07,02,18.20
2007,07,15,07,03,18.20
2007,07,15,07,04,18.20
2007,07,15,07,05,18.20
2007,07,15,07,06,18.20
2007,07,15,07,07,18.20
2007,07,15,07,08,18.20
2007,07,15,07,09,18.20
2007,07,15,07,10,18.20
2007,07,15,07,11,18.20
2007,07,15,07,12,18.20
2007,07,15,07,13,18.10
2007,07,15,07,14,18.10
2007,07,15,07,15,18.10
2007,07,15,07,16,18.10
2007,07,15,07,17,18.10
2007,07,15,07,18,18.10
2007,07,15,07,19,18.10
2007,07,15,07,20,18.00
2007,07,15,07,21,18.00
2007,07,15,07,22,17.90
2007,07,15,07,23,17.90
2007,07,15,07,24,17.90
2007,07,15,07,25,17.90
2007,07,15,07,26,17.90
2007,07,15,07,27,17.90
2007,07,15,07,28,17.90
2007,07,15,07,29,17.90
2007,07,15,07,30,17.90
2007,07,15,07,31,17.90
2007,07,15,07,32,17.90
2007,07,15,07,33,17.90
2007,07,15,07,34,17.90
2007,07,15,07,35,17.90
2007,07,15,07,36,17.90
2007,07,15,07,37,17.90
2007,07,15,07,38,17.90
2007,07,15,07,39,18.00
2007,07,15,07,40,18.10
2007,07,15,07,41,18.10
2007,07,15,07,42,18.20
2007,07,15,07,43,18.50
2007,07,15,07,44,18.80
2007,07,15,07,45,19.00
2007,07,15,07,46,19.20
2007,07,15,07,47,19.40
2007,07,15,07,48,19.50
2007,07,15,07,49,19.60
2007,07,15,07,50,19.80
2007,07,15,07,51,19.80
2007,07,15,07,52,19.90
2007,07,15,07,53,19.90
2007,07,15,07,54,20.00
2007,07,15,07,55,20.10
2007,07,15,07,56,20.20
2007,07,15,07,57,20.20
2007,07,15,07,58,20.30
2007,07,15,07,59,20.30
2007,07,15,08,00,20.40
2007,07,15,08,01,20.40
2007,07,15,08,02,20.40
2007,07,15,08,03,20.40
2007,07,15,08,04,20.50
2007,07,15,08,05,20.50
2007,07,15,08,06,20.50
2007,07,15,08,07,20.50
2007,07,15,08,08,20.50
2007,07,15,08,09,20.50
2007,07,15,08,10,20.50
2007,07,15,08,11,20.50
2007,07,15,08,12,20.50
2007,07,15,08,13,20.50
2007,07,15,08,14,20.50
2007,07,15,08,15,20.50
2007,07,15,08,16,20.60
2007,07,15,08,17,20.60
2007,07,15,08,18,20.60
2007,07,15,08,19,20.60
2007,07,15,08,20,20.60
2007,07,15,08,21,20.60
2007,07,15,08,22,20.60
2007,07,15,08,23,20.60
2007,07,15,08,24,20.60
2007,07,15,08,25,20.60
2007,07,15,08,26,20.70
2007,07,15,08,27,20.70
2007,07,15,08,28,20.70
2007,07,15,08,29,20.80
2007,07,15,08,30,20.80
2007,07,15,08,31,20.80
2007,07,15,08,32,20.90
2007,07,15,08,33,20.90
2007,07,15,08,34,20.90
2007,07,15,08,35,21.00
2007,07,15,08,36,21.00
2007,07,15,08,37,21.00
2007,07,15,08,38,21.00
2007,07,15,08,39,21.10
2007,07,15,08,40,21.10
2007,07,15,08,41,21.10
2007,07,15,08,42,21.10
2007,07,15,08,43,21.10
2007,07,15,08,44,21.20
2007,07,15,08,45,21.20
2007,07,15,08,46,21.20
2007,07,15,08,47,21.30
2007,07,15,08,48,21.30
2007,07,15,08,49,21.30
2007,07,15,08,50,21.30
2007,07,15,08,51,21.30
2007,07,15,08,52,21.30
2007,07,15,08,53,21.30
2007,07,15,08,54,21.30
2007,07,15,08,55,21.30
2007,07,15,08,56,21.30
2007,07,15,08,57,21.30
2007,07,15,08,58,21.40
2007,07,15,08,59,21.40
2007,07,15,09,00,21.40
2007,07,15,09,01,21.40
2007,07,15,09,02,21.40
2007,07,15,09,03,21.40
2007,07,15,09,04,21.40
2007,07,15,09,05,21.60
2007,07,15,09,06,21.60
2007,07,15,09,07,21.60
2007,07,15,09,08,21.60
2007,07,15,09,09,21.60
2007,07,15,09,10,21.60
2007,07,15,09,11,21.60
2007,07,15,09,12,21.60
2007,07,15,09,13,21.60
2007,07,15,09,14,21.70
2007,07,15,09,15,21.70
2007,07,15,09,16,21.70
2007,07,15,09,17,21.70
2007,07,15,09,18,21.70
2007,07,15,09,19,21.70
2007,07,15,09,20,21.70
2007,07,15,09,21,21.70
2007,07,15,09,22,21.60
2007,07,15,09,23,21.60
2007,07,15,09,24,21.60
2007,07,15,09,25,21.60
2007,07,15,09,26,21.60
2007,07,15,09,27,21.60
2007,07,15,09,28,21.60
2007,07,15,09,29,21.60
2007,07,15,09,30,21.60
2007,07,15,09,31,21.60
2007,07,15,09,32,21.60
2007,07,15,09,33,21.60
2007,07,15,09,34,21.60
2007,07,15,09,35,21.60
2007,07,15,09,36,21.60
2007,07,15,09,37,21.60
2007,07,15,09,38,21.60
2007,07,15,09,39,21.60
2007,07,15,09,40,21.60
2007,07,15,09,41,21.60
2007,07,15,09,42,21.40
2007,07,15,09,43,21.40
2007,07,15,09,44,21.40
2007,07,15,09,45,21.40
2007,07,15,09,46,21.40
2007,07,15,09,47,21.40
2007,07,15,09,48,21.40
2007,07,15,09,49,21.50
2007,07,15,09,50,21.60
2007,07,15,09,51,21.60
2007,07,15,09,52,21.60
2007,07,15,09,53,21.60
2007,07,15,09,54,21.60
2007,07,15,09,55,21.70
2007,07,15,09,56,21.70
2007,07,15,09,57,21.70
2007,07,15,09,58,21.70
2007,07,15,09,59,21.70
2007,07,15,10,00,21.70
2007,07,15,10,01,21.70
2007,07,15,10,02,21.70
2007,07,15,10,03,21.60
2007,07,15,10,04,21.60
2007,07,15,10,05,21.60
2007,07,15,10,06,21.60
2007,07,15,10,07,21.60
2007,07,15,10,08,21.60
2007,07,15,10,09,21.60
2007,07,15,10,10,21.60
2007,07,15,10,11,21.50
2007,07,15,10,12,21.40
2007,07,15,10,13,21.40
2007,07,15,10,14,21.40
2007,07,15,10,15,21.40
2007,07,15,10,16,21.40
2007,07,15,10,17,21.40
2007,07,15,10,18,21.40
2007,07,15,10,19,21.40
2007,07,15,10,20,21.40
2007,07,15,10,21,21.40
2007,07,15,10,22,21.40
2007,07,15,10,23,21.40
2007,07,15,10,24,21.40
2007,07,15,10,25,21.30
2007,07,15,10,26,21.30
2007,07,15,10,27,21.30
2007,07,15,10,28,21.30
2007,07,15,10,29,21.30
2007,07,15,10,30,21.30
2007,07,15,10,31,21.30
2007,07,15,10,32,21.30
2007,07,15,10,33,21.30
2007,07,15,10,34,21.30
2007,07,15,10,35,21.30
2007,07,15,10,36,21.20
2007,07,15,10,37,21.20
2007,07,15,10,38,21.10
2007,07,15,10,39,21.10
2007,07,15,10,40,21.00
2007,07,15,10,41,21.00
2007,07,15,10,42,21.00
2007,07,15,10,43,21.00
2007,07,15,10,44,21.00
2007,07,15,10,45,21.00
2007,07,15,10,46,21.00
2007,07,15,10,47,21.00
2007,07,15,10,48,21.00
2007,07,15,10,49,21.00
2007,07,15,10,50,21.00
2007,07,15,10,51,21.00
2007,07,15,10,52,21.10
2007,07,15,10,53,21.10
2007,07,15,10,54,21.10
2007,07,15,10,55,21.20
2007,07,15,10,56,21.20
2007,07,15,10,57,21.30
2007,07,15,10,58,21.30
2007,07,15,10,59,21.30
2007,07,15,11,00,21.40
2007,07,15,11,01,21.40
2007,07,15,11,02,21.50
2007,07,15,11,03,21.60
2007,07,15,11,04,21.60
2007,07,15,11,05,21.60
2007,07,15,11,06,21.60
2007,07,15,11,07,21.60
2007,07,15,11,08,21.70
2007,07,15,11,09,21.70
2007,07,15,11,10,21.80
2007,07,15,11,11,21.80
2007,07,15,11,12,21.80
2007,07,15,11,13,21.90
2007,07,15,11,14,21.90
2007,07,15,11,15,21.90
2007,07,15,11,16,21.90
2007,07,15,11,17,21.90
2007,07,15,11,18,21.90
2007,07,15,11,19,21.80
2007,07,15,11,20,21.80
2007,07,15,11,21,21.70
2007,07,15,11,22,21.60
2007,07,15,11,23,21.60
2007,07,15,11,24,21.50
2007,07,15,11,25,21.40
2007,07,15,11,26,21.40
2007,07,15,11,27,21.30
2007,07,15,11,28,21.30
2007,07,15,11,29,21.30
2007,07,15,11,30,21.20
2007,07,15,11,31,21.10
2007,07,15,11,32,21.00
2007,07,15,11,33,21.00
2007,07,15,11,34,20.90
2007,07,15,11,35,20.80
2007,07,15,11,36,20.80
2007,07,15,11,37,20.80
2007,07,15,11,38,20.70
2007,07,15,11,39,20.70
2007,07,15,11,40,20.70
2007,07,15,11,41,20.70
2007,07,15,11,42,20.70
2007,07,15,11,43,20.70
2007,07,15,11,44,20.70
2007,07,15,11,45,20.70
2007,07,15,11,46,20.70
2007,07,15,11,47,20.70
2007,07,15,11,48,20.70
2007,07,15,11,49,20.70
2007,07,15,11,50,20.70
2007,07,15,11,51,20.80
2007,07,15,11,52,20.80
2007,07,15,11,53,20.80
2007,07,15,11,54,20.80
2007,07,15,11,55,20.80
2007,07,15,11,56,20.80
2007,07,15,11,57,20.80
2007,07,15,11,58,20.80
2007,07,15,11,59,20.80
2007,07,15,12,00,20.80
2007,07,15,12,01,20.80
2007,07,15,12,02,20.90
2007,07,15,12,03,20.90
2007,07,15,12,04,20.90
2007,07,15,12,05,21.00
2007,07,15,12,06,21.00
2007,07,15,12,07,21.10
2007,07,15,12,08,21.10
2007,07,15,12,09,21.10
2007,07,15,12,10,21.20
2007,07,15,12,11,21.20
2007,07,15,12,12,21.20
2007,07,15,12,13,21.30
2007,07,15,12,14,21.30
2007,07,15,12,15,21.30
2007,07,15,12,16,21.30
2007,07,15,12,17,21.40
2007,07,15,12,18,21.50
2007,07,15,12,19,21.60
2007,07,15,12,20,21.60
2007,07,15,12,21,21.60
2007,07,15,12,22,21.70
2007,07,15,12,23,21.70
2007,07,15,12,24,21.70
2007,07,15,12,25,21.70
2007,07,15,12,26,21.80
2007,07,15,12,27,21.80
2007,07,15,12,28,21.80
2007,07,15,12,29,21.80
2007,07,15,12,30,21.80
2007,07,15,12,31,21.80
2007,07,15,12,32,21.80
2007,07,15,12,33,21.90
2007,07,15,12,34,21.90
2007,07,15,12,35,21.80
2007,07,15,12,36,21.80
2007,07,15,12,37,21.80
2007,07,15,12,38,21.80
2007,07,15,12,39,21.80
2007,07,15,12,40,21.80
2007,07,15,12,41,21.80
2007,07,15,12,42,21.80
2007,07,15,12,43,21.80
2007,07,15,12,44,21.70
2007,07,15,12,45,21.80
2007,07,15,12,46,21.80
2007,07,15,12,47,21.80
2007,07,15,12,48,21.90
2007,07,15,12,49,21.90
2007,07,15,12,50,21.90
2007,07,15,12,51,21.90
2007,07,15,12,52,21.90
2007,07,15,12,53,21.80
2007,07,15,12,54,21.80
2007,07,15,12,55,21.80
2007,07,15,12,56,21.80
2007,07,15,12,57,21.80
2007,07,15,12,58,21.80
2007,07,15,12,59,21.80
2007,07,15,13,00,21.70
2007,07,15,13,01,21.70
2007,07,15,13,02,21.70
2007,07,15,13,03,21.80
2007,07,15,13,04,21.80
2007,07,15,13,05,21.90
2007,07,15,13,06,21.90
2007,07,15,13,07,22.00
2007,07,15,13,08,22.00
2007,07,15,13,09,22.00
2007,07,15,13,10,22.10
2007,07,15,13,11,22.20
2007,07,15,13,12,22.30
2007,07,15,13,13,22.50
2007,07,15,13,14,22.60
2007,07,15,13,15,22.70
2007,07,15,13,16,22.80
2007,07,15,13,17,23.00
2007,07,15,13,18,23.10
2007,07,15,13,19,23.20
2007,07,15,13,20,23.30
2007,07,15,13,21,23.30
2007,07,15,13,22,23.30
2007,07,15,13,23,23.40
2007,07,15,13,24,23.60
2007,07,15,13,25,23.70
2007,07,15,13,26,23.70
2007,07,15,13,27,23.60
2007,07,15,13,28,23.60
2007,07,15,13,29,23.60
2007,07,15,13,30,23.60
2007,07,15,13,31,23.50
2007,07,15,13,32,23.40
2007,07,15,13,33,23.20
2007,07,15,13,34,23.10
2007,07,15,13,35,22.90
2007,07,15,13,36,22.80
2007,07,15,13,37,22.70
2007,07,15,13,38,22.70
2007,07,15,13,39,22.70
2007,07,15,13,40,22.70
2007,07,15,13,41,22.70
2007,07,15,13,42,22.60
2007,07,15,13,43,22.60
2007,07,15,13,44,22.70
2007,07,15,13,45,22.80
2007,07,15,13,46,22.90
2007,07,15,13,47,23.00
2007,07,15,13,48,23.20
2007,07,15,13,49,23.30
2007,07,15,13,50,23.30
2007,07,15,13,51,23.30
2007,07,15,13,52,23.30
2007,07,15,13,53,23.10
2007,07,15,13,54,22.90
2007,07,15,13,55,22.90
2007,07,15,13,56,22.90
2007,07,15,13,57,22.90
2007,07,15,13,58,22.90
2007,07,15,13,59,22.80
2007,07,15,14,00,22.60
2007,07,15,14,01,22.60
2007,07,15,14,02,22.60
2007,07,15,14,03,22.60
2007,07,15,14,04,22.60
2007,07,15,14,05,22.60
2007,07,15,14,06,22.70
2007,07,15,14,07,22.70
2007,07,15,14,08,22.70
2007,07,15,14,09,22.70
2007,07,15,14,10,22.70
2007,07,15,14,11,22.70
2007,07,15,14,12,22.80
2007,07,15,14,13,22.90
2007,07,15,14,14,22.90
2007,07,15,14,15,22.90
2007,07,15,14,16,22.90
2007,07,15,14,17,22.90
2007,07,15,14,18,22.90
2007,07,15,14,19,23.00
2007,07,15,14,20,23.20
2007,07,15,14,21,23.30
2007,07,15,14,22,23.30
2007,07,15,14,23,23.30
2007,07,15,14,24,23.30
2007,07,15,14,25,23.30
2007,07,15,14,26,23.20
2007,07,15,14,27,22.90
2007,07,15,14,28,22.80
2007,07,15,14,29,22.80
2007,07,15,14,30,22.70
2007,07,15,14,31,22.60
2007,07,15,14,32,22.50
2007,07,15,14,33,22.50
2007,07,15,14,34,22.40
2007,07,15,14,35,22.30
2007,07,15,14,36,22.30
2007,07,15,14,37,22.30
2007,07,15,14,38,22.40
2007,07,15,14,39,22.60
2007,07,15,14,40,22.80
2007,07,15,14,41,23.10
2007,07,15,14,42,23.20
2007,07,15,14,43,23.20
2007,07,15,14,44,23.00
2007,07,15,14,45,22.90
2007,07,15,14,46,22.80
2007,07,15,14,47,22.70
2007,07,15,14,48,22.70
2007,07,15,14,49,22.70
2007,07,15,14,50,22.60
2007,07,15,14,51,22.50
2007,07,15,14,52,22.50
2007,07,15,14,53,22.50
2007,07,15,14,54,22.50
2007,07,15,14,55,22.40
2007,07,15,14,56,22.40
2007,07,15,14,57,22.30
2007,07,15,14,58,22.20
2007,07,15,14,59,22.10
2007,07,15,15,00,22.10
2007,07,15,15,01,22.00
2007,07,15,15,02,21.90
2007,07,15,15,03,21.90
2007,07,15,15,04,21.90
2007,07,15,15,05,21.80
2007,07,15,15,06,21.80
2007,07,15,15,07,21.80
2007,07,15,15,08,21.80
2007,07,15,15,09,21.80
2007,07,15,15,10,21.80
2007,07,15,15,11,21.80
2007,07,15,15,12,21.80
2007,07,15,15,13,21.80
2007,07,15,15,14,21.80
2007,07,15,15,15,21.80
2007,07,15,15,16,21.80
2007,07,15,15,17,21.70
2007,07,15,15,18,21.70
2007,07,15,15,19,21.70
2007,07,15,15,20,21.70
2007,07,15,15,21,21.70
2007,07,15,15,22,21.70
2007,07,15,15,23,21.70
2007,07,15,15,24,21.70
2007,07,15,15,25,21.70
2007,07,15,15,26,21.70
2007,07,15,15,27,21.70
2007,07,15,15,28,21.70
2007,07,15,15,29,21.70
2007,07,15,15,30,21.70
2007,07,15,15,31,21.80
2007,07,15,15,32,21.80
2007,07,15,15,33,21.80
2007,07,15,15,34,21.80
2007,07,15,15,35,21.90
2007,07,15,15,36,21.90
2007,07,15,15,37,21.90
2007,07,15,15,38,22.00
2007,07,15,15,39,22.00
2007,07,15,15,40,22.10
2007,07,15,15,41,22.10
2007,07,15,15,42,22.20
2007,07,15,15,43,22.30
2007,07,15,15,44,22.30
2007,07,15,15,45,22.40
2007,07,15,15,46,22.50
2007,07,15,15,47,22.50
2007,07,15,15,48,22.60
2007,07,15,15,49,22.60
2007,07,15,15,50,22.70
2007,07,15,15,51,22.70
2007,07,15,15,52,22.80
2007,07,15,15,53,22.80
2007,07,15,15,54,22.90
2007,07,15,15,55,23.00
2007,07,15,15,56,23.10
2007,07,15,15,57,23.30
2007,07,15,15,58,23.30
2007,07,15,15,59,23.40
2007,07,15,16,00,23.50
2007,07,15,16,01,23.60
2007,07,15,16,02,23.60
2007,07,15,16,03,23.60
2007,07,15,16,04,23.50
2007,07,15,16,05,23.40
2007,07,15,16,06,23.40
2007,07,15,16,07,23.30
2007,07,15,16,08,23.30
2007,07,15,16,09,23.20
2007,07,15,16,10,23.20
2007,07,15,16,11,23.10
2007,07,15,16,12,23.00
2007,07,15,16,13,22.90
2007,07,15,16,14,22.90
2007,07,15,16,15,22.90
2007,07,15,16,16,22.80
2007,07,15,16,17,22.80
2007,07,15,16,18,22.80
2007,07,15,16,19,22.90
2007,07,15,16,20,22.90
2007,07,15,16,21,22.90
2007,07,15,16,22,22.90
2007,07,15,16,23,23.00
2007,07,15,16,24,23.10
2007,07,15,16,25,23.10
2007,07,15,16,26,23.10
2007,07,15,16,27,23.10
2007,07,15,16,28,23.10
2007,07,15,16,29,23.10
2007,07,15,16,30,23.10
2007,07,15,16,31,23.20
2007,07,15,16,32,23.20
2007,07,15,16,33,23.30
2007,07,15,16,34,23.30
2007,07,15,16,35,23.20
2007,07,15,16,36,23.20
2007,07,15,16,37,23.10
2007,07,15,16,38,23.10
2007,07,15,16,39,23.10
2007,07,15,16,40,23.10
2007,07,15,16,41,23.10
2007,07,15,16,42,23.10
2007,07,15,16,43,23.10
2007,07,15,16,44,23.10
2007,07,15,16,45,23.10
2007,07,15,16,46,23.20
2007,07,15,16,47,23.20
2007,07,15,16,48,23.20
2007,07,15,16,49,23.30
2007,07,15,16,50,23.30
2007,07,15,16,51,23.30
2007,07,15,16,52,23.30
2007,07,15,16,53,23.30
2007,07,15,16,54,23.30
2007,07,15,16,55,23.30
2007,07,15,16,56,23.30
2007,07,15,16,57,23.30
2007,07,15,16,58,23.30
2007,07,15,16,59,23.40
2007,07,15,17,00,23.40
2007,07,15,17,01,23.40
2007,07,15,17,02,23.40
2007,07,15,17,03,23.30
2007,07,15,17,04,23.30
2007,07,15,17,05,23.30
2007,07,15,17,06,23.30
2007,07,15,17,07,23.30
2007,07,15,17,08,23.30
2007,07,15,17,09,23.30
2007,07,15,17,10,23.30
2007,07,15,17,11,23.20
2007,07,15,17,12,23.20
2007,07,15,17,13,23.10
2007,07,15,17,14,23.20
2007,07,15,17,15,23.20
2007,07,15,17,16,23.20
2007,07,15,17,17,23.30
2007,07,15,17,18,23.30
2007,07,15,17,19,23.30